Date String (YYYY-MM-DD hh:mm:ss) UTC,Instrument flags,absolute air pressure of the measurement (hPa),sample flow rate (lpm),inlet stack bypass flow (lpm),air temperature of the measurement (°C),ambient temperature measured by the external sensor (°C),aerosol sample conditioner tube jacket temperature (°C),OPC LED temperature (°C),internal box temperature (°C),relative humidity of the measurement (%),span deviation,mass concentration of particles derived from Lorenz-Mie calculation of OPC scattering (μg/m³),mass concentration of particles derived from Lorenz-Mie calculation of OPC scattering (μg/m³),mass concentration of particles derived from Lorenz-Mie calculation of OPC scattering (μg/m³)
DateTimeUTC,F1_M11,P_M11,Q1_M11,Q2_M11,T1_M11,T2_M11,T3_M11,T4_M11,T5_M11,U1_M11,ZSPAN_M11,X0_M11,X2_M11,X1_M11
2024-01-22 12:00:00,SystemResetWarning,0822.8,5.00,000.00,020.8,019.8,000.0,029.2,022.1,16.7,0004.4,0007.82,0004.69,0004.46
2024-01-22 12:01:00,SystemResetWarning,0822.8,5.00,000.00,020.8,019.8,000.0,029.2,022.1,16.7,0004.7,0007.71,0004.69,0004.46
2024-01-22 12:02:00,SystemResetWarning,0822.8,4.99,000.00,020.8,019.8,000.0,029.2,022.1,16.7,0004.9,0007.65,0004.67,0004.45
2024-01-22 12:03:00,SystemResetWarning,0822.7,5.00,000.00,020.8,019.8,000.0,029.1,022.1,16.7,0004.9,0007.73,0004.68,0004.47
2024-01-22 12:04:00,SystemResetWarning,0822.8,4.99,000.00,020.8,019.7,000.0,029.1,022.1,16.7,0004.9,0008.77,0004.68,0004.50
2024-01-22 12:05:00,SystemResetWarning,0822.8,5.00,000.00,020.8,019.7,000.0,029.1,022.1,16.6,0004.8,0008.74,0004.67,0004.49
2024-01-22 12:06:00,SystemResetWarning,0822.7,5.00,000.00,020.8,019.7,000.0,029.1,022.1,16.6,0004.4,0008.72,0004.64,0004.47
2024-01-22 12:07:00,SystemResetWarning,0822.8,5.00,000.00,020.8,019.7,000.0,029.1,022.0,16.6,0004.3,0008.81,0004.66,0004.50
2024-01-22 12:08:00,SystemResetWarning,0822.8,5.01,000.00,020.8,019.7,000.0,029.1,022.1,16.6,0004.6,0008.75,0004.67,0004.52
2024-01-22 12:09:00,SystemResetWarning,0822.8,5.00,000.00,020.8,019.7,000.0,029.1,022.1,16.6,0004.8,0008.80,0004.70,0004.53
2024-01-22 12:10:00,SystemResetWarning,0822.8,5.00,000.00,020.8,019.7,000.0,029.1,022.0,16.5,0004.7,0008.86,0004.72,0004.54
2024-01-22 12:11:00,SystemResetWarning,0822.8,5.00,000.00,020.7,019.7,000.0,029.1,022.0,16.6,0004.5,0008.91,0004.75,0004.56
2024-01-22 12:12:00,SystemResetWarning,0822.8,5.00,000.00,020.7,019.7,000.0,029.1,022.0,16.6,0004.6,0008.96,0004.77,0004.58
2024-01-22 12:13:00,SystemResetWarning,0822.8,4.99,000.00,020.7,019.7,000.0,029.1,022.0,16.6,0004.6,0008.98,0004.79,0004.61
2024-01-22 12:14:00,SystemResetWarning,0822.8,5.00,000.00,020.7,019.7,000.0,029.1,022.0,16.6,0004.5,0008.99,0004.81,0004.60
2024-01-22 12:15:00,SystemResetWarning,0822.7,5.01,000.00,020.7,019.7,000.0,029.1,022.0,16.7,0004.5,0007.90,0004.78,0004.59
2024-01-22 12:16:00,SystemResetWarning,0822.8,5.01,000.00,020.7,019.7,000.0,029.1,022.0,16.7,0004.6,0007.87,0004.79,0004.59
2024-01-22 12:17:00,SystemResetWarning,0822.8,4.99,000.00,020.7,019.7,000.0,029.1,022.0,16.6,0004.7,0008.15,0004.79,0004.59
2024-01-22 12:18:00,SystemResetWarning,0822.8,4.99,000.00,020.7,019.7,000.0,029.1,022.0,16.6,0004.7,0008.08,0004.80,0004.60
2024-01-22 12:19:00,SystemResetWarning,0822.7,5.00,000.00,020.7,019.7,000.0,029.1,022.0,16.5,0004.6,0008.10,0004.81,0004.60
2024-01-22 12:20:00,SystemResetWarning,0822.8,5.01,000.00,020.7,019.7,000.0,029.1,022.0,16.5,0004.5,0008.16,0004.75,0004.56
2024-01-22 12:21:00,SystemResetWarning,0822.8,5.01,000.00,020.7,019.7,000.0,029.1,022.0,16.5,0004.5,0008.37,0004.72,0004.52
2024-01-22 12:22:00,SystemResetWarning,0822.7,4.99,000.00,020.7,019.7,000.0,029.1,022.0,16.5,0004.7,0008.43,0004.70,0004.50
2024-01-22 12:23:00,SystemResetWarning,0822.8,4.98,000.00,020.7,019.7,000.0,029.1,022.0,16.6,0004.6,0008.46,0004.69,0004.48
2024-01-22 12:24:00,SystemResetWarning,0822.8,5.00,000.00,020.7,019.7,000.0,029.1,022.0,16.7,0004.6,0008.51,0004.68,0004.46
2024-01-22 12:25:00,SystemResetWarning,0822.8,5.01,000.00,020.7,019.7,000.0,029.1,022.0,16.6,0004.4,0008.44,0004.67,0004.45
2024-01-22 12:26:00,SystemResetWarning,0822.9,5.01,000.00,020.7,019.7,000.0,029.1,022.0,16.5,0004.3,0008.44,0004.68,0004.46
2024-01-22 12:27:00,SystemResetWarning,0822.8,4.99,000.00,020.7,019.7,000.0,029.1,022.0,16.7,0004.2,0008.44,0004.67,0004.45
2024-01-22 12:28:00,SystemResetWarning,0822.8,4.98,000.00,020.7,019.7,000.0,029.1,022.0,16.9,0004.1,0008.17,0004.63,0004.42
2024-01-22 12:29:00,SystemResetWarning,0822.8,5.01,000.00,020.7,019.7,000.0,029.1,022.0,17.0,0004.3,0008.05,0004.59,0004.38
2024-01-22 12:30:00,SystemResetWarning,0822.8,5.01,000.00,020.7,019.7,000.0,029.1,022.0,17.0,0004.1,0008.01,0004.55,0004.32
2024-01-22 12:31:00,SystemResetWarning,0822.8,4.99,000.00,020.7,019.7,000.0,029.0,022.0,17.1,0004.1,0007.94,0004.53,0004.30
2024-01-22 12:32:00,SystemResetWarning,0822.8,4.99,000.00,020.7,019.7,000.0,029.0,022.0,17.1,0003.9,0007.51,0004.49,0004.27
2024-01-22 12:33:00,SystemResetWarning,0822.8,5.00,000.00,020.7,019.7,000.0,029.0,022.0,17.1,0003.8,0007.39,0004.45,0004.24
2024-01-22 12:34:00,SystemResetWarning,0822.8,5.01,000.00,020.7,019.7,000.0,029.0,022.0,17.1,0003.5,0007.26,0004.41,0004.21
2024-01-22 12:35:00,SystemResetWarning,0822.7,5.01,000.00,020.7,019.7,000.0,029.0,022.0,16.9,0003.4,0007.00,0004.35,0004.16
2024-01-22 12:36:00,SystemResetWarning,0822.9,5.01,000.00,020.7,019.7,000.0,029.0,022.0,16.7,0003.5,0007.53,0004.33,0004.13
2024-01-22 12:37:00,SystemResetWarning,0823.0,4.98,000.00,020.7,019.7,000.0,029.0,022.0,16.8,0003.7,0008.25,0004.34,0004.13
2024-01-22 12:38:00,SystemResetWarning,0823.2,4.99,000.00,020.7,019.7,000.0,029.0,022.0,16.9,0003.8,0008.74,0004.33,0004.12
2024-01-22 12:39:00,SystemResetWarning,0822.7,5.01,000.00,020.7,019.7,000.0,029.0,022.0,17.0,0003.6,0008.88,0004.29,0004.10
2024-01-22 12:40:00,SystemResetWarning,0822.8,5.00,000.00,020.7,019.7,000.0,029.0,022.0,16.9,0003.2,0008.84,0004.27,0004.10
2024-01-22 12:41:00,SystemResetWarning,0822.8,5.01,000.00,020.6,019.7,000.0,029.0,022.0,17.0,0003.5,0008.74,0004.24,0004.08
2024-01-22 12:42:00,SystemResetWarning,0822.8,5.00,000.00,020.6,019.7,000.0,029.0,022.0,17.0,0003.5,0008.72,0004.22,0004.07
2024-01-22 12:43:00,SystemResetWarning,0822.8,5.00,000.00,020.6,019.7,000.0,029.0,022.0,17.1,0003.8,0008.76,0004.23,0004.09
2024-01-22 12:44:00,SystemResetWarning,0822.8,5.00,000.00,020.6,019.7,000.0,029.0,022.0,17.1,0004.0,0008.76,0004.24,0004.08
2024-01-22 12:45:00,SystemResetWarning,0822.7,4.99,000.00,020.6,019.7,000.0,029.0,022.0,17.1,0004.1,0008.85,0004.28,0004.11
2024-01-22 12:46:00,SystemResetWarning,0823.0,4.99,000.00,020.6,019.7,000.0,029.0,022.0,17.0,0004.1,0009.03,0004.35,0004.15
2024-01-22 12:47:00,SystemResetWarning,0823.3,5.00,000.00,020.6,019.7,000.0,029.0,022.0,16.8,0003.9,0008.63,0004.36,0004.17
2024-01-22 12:48:00,SystemResetWarning,0823.2,5.00,000.00,020.6,019.7,000.0,029.0,022.0,16.8,0003.9,0007.89,0004.34,0004.15
2024-01-22 12:49:00,SystemResetWarning,0823.2,5.02,000.00,020.6,019.7,000.0,029.0,021.9,16.8,0003.7,0007.37,0004.35,0004.17
2024-01-22 12:50:00,SystemResetWarning,0823.0,5.00,000.00,020.6,019.6,000.0,029.0,022.0,16.8,0003.9,0007.40,0004.45,0004.25
2024-01-22 12:51:00,SystemResetWarning,0823.1,4.99,000.00,020.6,019.6,000.0,029.0,022.0,16.8,0004.4,0007.52,0004.52,0004.31
2024-01-22 12:52:00,SystemResetWarning,0822.9,4.99,000.00,020.6,019.6,000.0,029.0,022.0,16.8,0004.3,0007.69,0004.62,0004.41
2024-01-22 12:53:00,SystemResetWarning,0822.9,5.01,000.00,020.6,019.6,000.0,029.0,022.0,16.9,0004.3,0007.82,0004.73,0004.50
2024-01-22 12:54:00,SystemResetWarning,0823.2,5.01,000.00,020.6,019.6,000.0,029.0,021.9,17.0,0004.3,0007.98,0004.83,0004.59
2024-01-22 12:55:00,SystemResetWarning,0823.4,4.99,000.00,020.6,019.6,000.0,029.0,022.0,17.0,0004.2,0008.18,0004.95,0004.71
2024-01-22 12:56:00,SystemResetWarning,0823.3,4.99,000.00,020.6,019.6,000.0,029.0,021.9,17.1,0004.3,0008.28,0005.02,0004.77
2024-01-22 12:57:00,SystemResetWarning,0823.1,5.02,000.00,020.6,019.6,000.0,029.0,021.9,17.0,0004.4,0008.19,0004.99,0004.76
2024-01-22 12:58:00,SystemResetWarning,0823.2,5.01,000.00,020.6,019.6,000.0,029.0,021.9,17.0,0004.6,0008.13,0004.98,0004.77
2024-01-22 12:59:00,SystemResetWarning,0823.2,4.99,000.00,020.6,019.6,000.0,029.0,021.9,17.0,0004.7,0008.20,0005.04,0004.83
